EW2725 Weather Reports


Display with metric or nautical units.
time (UTC)temp
F
wind
direction
speed
MPH
gust
MPH
rain 1hr
in
rain 24hr
in
rain mn
in
humidity
%
barometer
mb
20260506013505 54 0 0.0 0.0 0.00 0.00 0.00 83 1013.2
20260506013138 54 209 5.0 0.0 0.00 0.00 0.00 78 1100.1
20260506013006 54 0 0.0 0.0 0.00 0.00 0.00 83 1013.2
20260506012007 54 0 0.0 0.0 0.00 0.00 0.00 83 1013.2
20260506011640 54 252 4.0 0.0 0.00 0.00 0.00 79 1100.1
20260506011507 54 0 0.0 0.0 0.00 0.00 0.00 83 1013.2
20260506010505 54 0 0.0 0.0 0.00 0.00 0.00 84 1013.0
20260506010139 54 252 4.0 0.0 0.00 0.00 0.00 80 1100.1
20260506005505 54 0 0.0 0.0 0.00 0.00 0.00 84 1013.2
20260506005006 54 0 0.0 0.0 0.00 0.00 0.00 84 1013.1
20260506004642 54 252 4.0 0.0 0.00 0.00 0.00 80 1100.1
20260506004506 54 0 0.0 0.0 0.00 0.00 0.00 84 1013.0
20260506004006 54 0 0.0 0.0 0.00 0.00 0.00 84 1012.9
20260506003506 54 0 0.0 0.0 0.00 0.00 0.00 84 1012.6
20260506003138 54 208 5.0 0.0 0.00 0.00 0.00 80 1100.1
20260506003007 54 0 0.0 0.0 0.00 0.00 0.00 84 1012.4
20260506002506 54 0 0.0 0.0 0.00 0.00 0.00 84 1012.2
20260506001640 54 234 5.0 0.0 0.00 0.00 0.00 80 1100.1
20260506000506 55 0 0.0 0.0 0.00 0.00 0.00 83 1011.8
20260506000010 55 186 5.0 0.0 0.00 0.00 0.00 79 1100.1
20260505235505 55 0 0.0 0.0 0.00 0.00 0.00 83 1011.6
20260505235006 55 0 0.0 0.0 0.00 0.00 0.00 83 1011.5
20260505234507 55 253 6.0 0.0 0.00 0.00 0.00 79 1100.1
20260505233101 55 202 5.0 0.0 0.00 0.00 0.00 79 1100.1
20260505231612 55 182 5.0 0.0 0.00 0.00 0.00 79 1100.1
20260505231505 56 0 0.0 0.0 0.00 0.00 0.00 83 1011.6
20260505231005 56 0 0.0 0.0 0.00 0.00 0.00 83 1011.5
20260505230123 55 257 6.0 0.0 0.00 0.00 0.00 79 1100.1
20260505225007 56 0 0.0 0.0 0.00 0.00 0.00 81 1011.3
20260505224615 56 221 5.0 0.0 0.00 0.00 0.00 78 1100.1
20260505224006 56 0 0.0 0.0 0.00 0.00 0.00 80 1011.2
20260505223506 57 0 0.0 0.0 0.00 0.00 0.00 80 1011.1
20260505223119 56 150 6.0 0.0 0.00 0.00 0.00 78 1100.1
20260505222006 57 0 0.0 0.0 0.00 0.00 0.00 79 1010.9
20260505221632 57 184 5.0 0.0 0.00 0.00 0.00 76 1100.1
20260505221005 58 0 0.0 0.0 0.00 0.00 0.00 78 1010.8
20260505220506 58 0 0.0 0.0 0.00 0.00 0.00 78 1010.8
20260505220132 57 227 6.0 0.0 0.00 0.00 0.00 76 1100.1
20260505214633 57 229 7.0 0.0 0.00 0.00 0.00 76 1100.1
20260505214505 59 0 0.0 0.0 0.00 0.00 0.00 77 1010.7
20260505214007 59 0 0.0 0.0 0.00 0.00 0.00 77 1010.8
20260505213136 57 243 8.0 0.0 0.00 0.00 0.00 76 1100.1
20260505212006 60 0 0.0 0.0 0.00 0.00 0.00 75 1010.3
20260505211628 58 162 6.0 0.0 0.00 0.00 0.00 75 1100.1
20260505211506 60 0 0.0 0.0 0.00 0.00 0.00 76 1010.4
20260505211006 60 0 0.0 0.0 0.00 0.00 0.00 76 1010.5
20260505210505 60 0 0.0 0.0 0.00 0.00 0.00 76 1010.5
20260505210123 58 236 6.0 0.0 0.00 0.00 0.00 75 1100.1
20260505205505 60 0 0.0 0.0 0.00 0.00 0.00 75 1010.4
20260505204617 58 247 10.0 0.0 0.00 0.00 0.00 75 1100.1
20260505204505 60 0 0.0 0.0 0.00 0.00 0.00 75 1010.4
20260505203505 60 0 0.0 0.0 0.00 0.00 0.00 74 1010.3
20260505203112 58 223 8.0 0.0 0.00 0.00 0.00 75 1100.1
20260505203006 60 0 0.0 0.0 0.00 0.00 0.00 75 1010.1
20260505202005 60 0 0.0 0.0 0.00 0.00 0.00 74 1010.2
20260505201617 58 158 8.0 0.0 0.00 0.00 0.00 74 1100.1
20260505201005 61 0 0.0 0.0 0.00 0.00 0.00 72 1010.5
20260505200506 61 0 0.0 0.0 0.00 0.00 0.00 72 1010.6
20260505200133 58 234 9.0 0.0 0.00 0.00 0.00 74 1100.1
20260505194505 61 0 0.0 0.0 0.00 0.00 0.00 72 1010.7
20260505194503 59 225 10.0 0.0 0.00 0.00 0.00 74 1100.1
20260505194005 62 0 0.0 0.0 0.00 0.00 0.00 73 1010.7
20260505193140 59 252 9.0 0.0 0.00 0.00 0.00 73 1100.1
20260505191505 61 0 0.0 0.0 0.00 0.00 0.00 73 1010.7
20260505191502 60 219 8.0 0.0 0.00 0.00 0.00 73 1100.1
20260505191006 62 0 0.0 0.0 0.00 0.00 0.00 71 1010.8
20260505190008 60 223 8.0 0.0 0.00 0.00 0.00 73 1100.1
20260505185505 63 0 0.0 0.0 0.00 0.00 0.00 70 1010.9
20260505185006 63 0 0.0 0.0 0.00 0.00 0.00 70 1011.0
20260505184510 60 232 8.0 0.0 0.00 0.00 0.00 74 1100.1
20260505184005 63 0 0.0 0.0 0.00 0.00 0.00 72 1011.0
20260505183506 62 0 0.0 0.0 0.00 0.00 0.00 72 1011.1
20260505183013 59 229 8.0 0.0 0.00 0.00 0.00 73 1100.1
20260505183006 62 0 0.0 0.0 0.00 0.00 0.00 72 1011.1
20260505182005 61 0 0.0 0.0 0.00 0.00 0.00 73 1011.3
20260505181609 59 240 9.0 0.0 0.00 0.00 0.00 74 1100.1
20260505181505 61 0 0.0 0.0 0.00 0.00 0.00 73 1011.4
20260505180505 62 0 0.0 0.0 0.00 0.00 0.00 72 1011.4
20260505180113 59 243 8.0 0.0 0.00 0.00 0.00 74 1100.1
20260505180006 62 0 0.0 0.0 0.00 0.00 0.00 72 1011.6
20260505175505 62 0 0.0 0.0 0.00 0.00 0.00 71 1011.6
20260505175006 64 0 0.0 0.0 0.00 0.00 0.00 69 1011.6
20260505174607 60 221 8.0 0.0 0.00 0.00 0.00 73 1100.1
20260505174005 62 0 0.0 0.0 0.00 0.00 0.00 72 1011.7
20260505173505 63 0 0.0 0.0 0.00 0.00 0.00 71 1011.7
20260505173107 61 229 6.0 0.0 0.00 0.00 0.00 72 1100.1
20260505172506 63 0 0.0 0.0 0.00 0.00 0.00 72 1011.8
20260505171610 59 228 7.0 0.0 0.00 0.00 0.00 74 1100.1
20260505170110 59 173 9.0 0.0 0.00 0.00 0.00 74 1100.1
20260505165505 63 0 0.0 0.0 0.00 0.00 0.00 73 1012.1
20260505165006 63 0 0.0 0.0 0.00 0.00 0.00 71 1012.2
20260505164616 60 227 7.0 0.0 0.00 0.00 0.00 73 1100.1
20260505164505 63 0 0.0 0.0 0.00 0.00 0.00 72 1012.1
20260505163505 62 0 0.0 0.0 0.00 0.00 0.00 72 1012.0
20260505163107 60 159 8.0 0.0 0.00 0.00 0.00 73 1100.1
20260505162505 62 0 0.0 0.0 0.00 0.00 0.00 72 1012.2
20260505161611 59 232 8.0 0.0 0.00 0.00 0.00 74 1100.1
20260505161006 62 0 0.0 0.0 0.00 0.00 0.00 72 1012.2
20260505153015 60 218 8.0 0.0 0.00 0.00 0.00 74 1100.1
20260505152505 61 0 0.0 0.0 0.00 0.00 0.00 74 1012.4
20260505152006 61 0 0.0 0.0 0.00 0.00 0.00 75 1012.3
20260505151604 59 177 8.0 0.0 0.00 0.00 0.00 73 1100.1
20260505151505 61 0 0.0 0.0 0.00 0.00 0.00 74 1012.4
20260505150505 62 0 0.0 0.0 0.00 0.00 0.00 73 1012.4
20260505140111 58 161 6.0 0.0 0.00 0.00 0.00 75 1100.1
20260505130131 57 227 6.0 0.0 0.00 0.00 0.00 78 1100.1
20260505124629 57 242 7.0 0.0 0.00 0.00 0.00 78 1100.1
20260505124505 56 0 0.0 0.0 0.00 0.00 0.00 83 1012.2
20260505124006 56 0 0.0 0.0 0.00 0.00 0.00 83 1012.1
20260505123505 56 0 0.0 0.0 0.00 0.00 0.00 82 1012.0
20260505123006 56 0 0.0 0.0 0.00 0.00 0.00 82 1012.0
20260505123001 56 234 7.0 0.0 0.00 0.00 0.00 78 1100.1
20260505122504 56 0 0.0 0.0 0.00 0.00 0.00 82 1012.0
20260505122007 56 0 0.0 0.0 0.00 0.00 0.00 82 1012.0
20260505121641 56 258 6.0 0.0 0.00 0.00 0.00 79 1100.1
20260505121506 56 0 0.0 0.0 0.00 0.00 0.00 83 1011.9
20260505120505 56 0 0.0 0.0 0.00 0.00 0.00 83 1012.1
20260505120006 56 0 0.0 0.0 0.00 0.00 0.00 84 1012.0
20260505114505 55 0 0.0 0.0 0.00 0.00 0.00 85 1012.1
20260505114005 54 0 0.0 0.0 0.00 0.00 0.00 86 1012.1
20260505113013 54 239 4.0 0.0 0.00 0.00 0.00 82 1100.1
20260505112505 53 0 0.0 0.0 0.00 0.00 0.00 88 1012.3
20260505112005 53 0 0.0 0.0 0.00 0.00 0.00 88 1012.3
20260505111505 53 238 4.0 0.0 0.00 0.00 0.00 83 1100.1
20260505102005 50 0 0.0 0.0 0.00 0.00 0.00 92 1011.9
20260505101507 50 229 2.0 0.0 0.00 0.00 0.00 88 1100.1
20260505101005 50 0 0.0 0.0 0.00 0.00 0.00 92 1011.9
20260505100015 49 229 2.0 0.0 0.00 0.00 0.00 88 1100.1
20260505100005 50 0 0.0 0.0 0.00 0.00 0.00 92 1011.8
20260505095504 50 0 0.0 0.0 0.00 0.00 0.00 92 1011.9
20260505095005 49 0 0.0 0.0 0.00 0.00 0.00 92 1011.9
20260505094650 49 229 1.0 0.0 0.00 0.00 0.00 88 1100.1
20260505094005 49 0 0.0 0.0 0.00 0.00 0.00 92 1011.9
20260505093505 49 0 0.0 0.0 0.00 0.00 0.00 92 1011.9
20260505093128 49 229 2.0 0.0 0.00 0.00 0.00 88 1100.1
20260505092505 50 0 0.0 0.0 0.00 0.00 0.00 92 1012.0
20260505091624 49 229 2.0 0.0 0.00 0.00 0.00 88 1100.1
20260505091005 49 0 0.0 0.0 0.00 0.00 0.00 92 1011.9
20260505090112 49 229 2.0 0.0 0.00 0.00 0.00 88 1100.1
20260505085505 50 0 0.0 0.0 0.00 0.00 0.00 92 1011.9
20260505085005 50 0 0.0 0.0 0.00 0.00 0.00 92 1012.0
20260505084614 49 211 2.0 0.0 0.00 0.00 0.00 89 1100.1
20260505083005 50 0 0.0 0.0 0.00 0.00 0.00 92 1012.0
20260505082005 50 0 0.0 0.0 0.00 0.00 0.00 92 1012.0
20260505081643 49 225 3.0 0.0 0.00 0.00 0.00 89 1100.1
20260505081504 50 0 0.0 0.0 0.00 0.00 0.00 92 1012.0
20260505080132 49 183 2.0 0.0 0.00 0.00 0.00 89 1100.1
20260505080005 50 0 0.0 0.0 0.00 0.00 0.00 92 1012.1
20260505075505 50 0 0.0 0.0 0.00 0.00 0.00 92 1012.1
20260505074627 49 225 2.0 0.0 0.00 0.00 0.00 89 1100.1
20260505074505 50 0 0.0 0.0 0.00 0.00 0.00 92 1012.1
20260505073505 49 0 0.0 0.0 0.00 0.00 0.00 92 1012.2
20260505073141 49 225 1.0 0.0 0.00 0.00 0.00 88 1100.1
20260505073005 49 0 0.0 0.0 0.00 0.00 0.00 92 1012.2
20260505072506 49 0 0.0 0.0 0.00 0.00 0.00 92 1012.1
20260505071640 49 225 1.0 0.0 0.00 0.00 0.00 88 1100.1
20260505071505 49 0 0.0 0.0 0.00 0.00 0.00 91 1012.1
20260505071005 50 0 0.0 0.0 0.00 0.00 0.00 91 1012.1
20260505070005 50 0 0.0 0.0 0.00 0.00 0.00 91 1012.0
20260505070002 49 225 2.0 0.0 0.00 0.00 0.00 88 1100.1
20260505064510 49 225 1.0 0.0 0.00 0.00 0.00 88 1100.1
20260505064505 50 0 0.0 0.0 0.00 0.00 0.00 91 1012.1
20260505063505 50 0 0.0 0.0 0.00 0.00 0.00 91 1012.1
20260505063008 49 225 1.0 0.0 0.00 0.00 0.00 88 1100.1
20260505063005 50 0 0.0 0.0 0.00 0.00 0.00 91 1012.1
20260505062504 50 0 0.0 0.0 0.00 0.00 0.00 91 1012.1
20260505061504 49 225 2.0 0.0 0.00 0.00 0.00 88 1100.1
20260505061005 50 0 0.0 0.0 0.00 0.00 0.00 91 1012.2
20260505060005 50 0 0.0 0.0 0.00 0.00 0.00 90 1012.1
20260505060002 49 225 1.0 0.0 0.00 0.00 0.00 87 1100.1
20260505055505 50 0 0.0 0.0 0.00 0.00 0.00 90 1012.2
20260505055005 50 0 0.0 0.0 0.00 0.00 0.00 90 1012.2
20260505054649 49 225 1.0 0.0 0.00 0.00 0.00 87 1100.1
20260505053139 49 225 2.0 0.0 0.00 0.00 0.00 86 1100.1
20260505053005 50 0 0.0 0.0 0.00 0.00 0.00 90 1012.1
20260505052505 50 0 0.0 0.0 0.00 0.00 0.00 90 1012.1
20260505051630 50 225 2.0 0.0 0.00 0.00 0.00 86 1100.1
20260505050118 50 225 2.0 0.0 0.00 0.00 0.00 86 1100.1
20260505041622 50 219 3.0 0.0 0.00 0.00 0.00 85 1100.1
20260505040125 50 219 3.0 0.0 0.00 0.00 0.00 84 1100.1
20260505035505 51 0 0.0 0.0 0.00 0.00 0.00 87 1012.4
20260505034606 50 219 2.0 0.0 0.00 0.00 0.00 84 1100.1
20260505034005 51 0 0.0 0.0 0.00 0.00 0.00 86 1012.5
20260505033506 51 0 0.0 0.0 0.00 0.00 0.00 86 1012.5
20260505033107 51 223 3.0 0.0 0.00 0.00 0.00 83 1100.1
20260505031503 51 225 3.0 0.0 0.00 0.00 0.00 82 1100.1
20260505030149 51 215 2.0 0.0 0.00 0.00 0.00 81 1100.1
20260505030005 52 0 0.0 0.0 0.00 0.00 0.00 84 1012.6
20260505024637 51 213 3.0 0.0 0.00 0.00 0.00 80 1100.1
20260505024505 52 0 0.0 0.0 0.00 0.00 0.00 83 1012.6
20260505023506 52 0 0.0 0.0 0.00 0.00 0.00 82 1012.7
20260505023130 51 229 3.0 0.0 0.00 0.00 0.00 79 1100.1
20260505022506 52 0 0.0 0.0 0.00 0.00 0.00 81 1012.8
20260505022005 52 0 0.0 0.0 0.00 0.00 0.00 81 1012.8
20260505021619 52 218 3.0 0.0 0.00 0.00 0.00 78 1100.1
20260505020505 52 0 0.0 0.0 0.00 0.00 0.00 80 1012.8
20260505020116 52 224 4.0 0.0 0.00 0.00 0.00 77 1100.1
20260505020005 52 0 0.0 0.0 0.00 0.00 0.00 80 1012.6
20260505015005 53 0 0.0 0.0 0.00 0.00 0.00 79 1012.6
20260505014612 52 198 4.0 0.0 0.00 0.00 0.00 77 1100.1